Location: Oshawa
(43.9000°N, 78.8670°W)
Time: 22:04:31
(UTC-04:00)

ITAMSAT 1 - Visible Passes

Search period start: 20 September 2014 00:00
Search period end: 30 September 2014 00:00
Orbit: 785 x 798 km, 98.7° (Epoch: 18 September)

Date Brightness Start Highest point End Pass type
(mag) Time Alt. Az. Time Alt. Az. Time Alt. Az.
20 Sep 9.9 02:50:16 10° NE 02:52:24 21° NE 02:52:24 21° NE visible
20 Sep 8.7 04:29:36 10° N 04:33:09 32° NW 04:33:09 32° NW visible
21 Sep 10.4 02:22:11 10° NE 02:22:51 12° ENE 02:22:51 12° ENE visible
21 Sep 8.6 04:00:14 10° N 04:03:36 40° N 04:03:36 40° N visible
22 Sep 9.1 03:31:07 10° NNE 03:34:03 34° NNE 03:34:03 34° NNE visible
22 Sep 9.3 05:11:56 10° NNW 05:14:48 17° NW 05:14:48 17° NW visible
23 Sep 9.8 03:02:16 10° NNE 03:04:29 23° NE 03:04:29 23° NE visible
23 Sep 9.0 04:42:02 10° N 04:45:14 26° NW 04:45:14 26° NW visible
24 Sep 10.3 02:33:52 10° NE 02:34:56 14° NE 02:34:56 14° NE visible
24 Sep 8.8 04:12:32 10° N 04:15:41 34° NNW 04:15:41 34° NNW visible
25 Sep 9.1 03:43:19 10° NNE 03:46:07 33° NNE 03:46:07 33° NNE visible
25 Sep 9.6 05:24:44 10° NNW 05:26:52 14° NW 05:26:52 14° NW visible
26 Sep 9.7 03:14:21 10° NNE 03:16:34 25° NE 03:16:34 25° NE visible
26 Sep 9.2 04:54:31 10° NNW 04:57:19 22° NW 04:57:19 22° NW visible
27 Sep 10.2 02:45:44 10° NE 02:47:01 16° NE 02:47:01 16° NE visible
27 Sep 9.0 04:24:54 10° N 04:27:45 29° NNW 04:27:45 29° NNW visible
28 Sep 9.1 03:55:34 10° N 03:58:12 30° N 03:58:12 30° N visible
28 Sep 9.7 05:37:59 10° NW 05:38:56 11° NW 05:38:56 11° NW visible
29 Sep 9.6 03:26:29 10° NNE 03:28:38 25° NNE 03:28:38 25° NNE visible
29 Sep 9.4 05:07:06 10° NNW 05:09:23 18° NW 05:09:23 18° NW visible
